Weather History for Evergreen, AL

Change the Weather History Date:

Monday, March 12, 2012

  Actual Average (KPRN) Record (KPRN)
Temperature  
Mean Temperature 70 °F -  
Max Temperature 75 °F 69 °F 89 °F (1955)
Min Temperature 64 °F 45 °F 24 °F (1969)
Cooling Degree Days 4    
Growing Degree Days 20 (Base 50)    
Moisture  
Dew Point 63 °F    
Average Humidity 83    
Maximum Humidity 94    
Minimum Humidity 62    
Precipitation  
Precipitation 0.11 in - - ()
Sea Level Pressure  
Sea Level Pressure 30.25 in    
Wind  
Wind Speed 8 mph (SSE)    
Max Wind Speed 17 mph    
Max Gust Speed 25 mph    
Visibility 9 miles    
Events Rain    
Averages and records for this station are not official NWS values.
T = Trace of Precipitation, MM = Missing Value Source: NWS Daily Summary

Daily Weather History Graph

Daily Weather History Graph

Search for Another Location

Airport:

Trip Planner

Search our weather history database for the weather conditions in past years. The results will help you decide how hot, cold, wet, or windy it might be!

Date:

Astronomy

Mar. 12, 2012 Rise Set
Actual Time 7:01 AM CDT 6:54 PM CDT
Civil Twilight 6:37 AM CDT 7:18 PM CDT
Nautical Twilight 6:09 AM CDT 7:46 PM CDT
Astronomical Twilight 5:40 AM CDT 8:15 PM CDT
Moon No Moon Rise 9:44 AM CDT (3/12)
Length of Visible Light 12h 41m
Length of Day
11h 53m
Waning Gibbous, 76% of the Moon is Illuminated
Mar 12
Waning Gibbous
Mar 14
Last Quarter
Mar 22
New
Mar 30
First Quarter
Apr 6
Full

Hourly Weather History & Observations

Time (CDT) Temp. Dew Point Humidity Pressure Visibility Wind Dir Wind Speed Gust Speed Precip Events Conditions
12:49 AM 66.2 °F 62.6 °F 88% 30.26 in 8.0 mi SE 4.6 mph - N/A   Overcast
12:53 AM 66.0 °F 63.0 °F 90% 30.26 in 8.0 mi SE 4.6 mph - N/A   Overcast
1:53 AM 66.9 °F 63.0 °F 87% 30.26 in 10.0 mi ESE 5.8 mph - 0.00 in   Overcast
2:36 AM 66.2 °F 62.6 °F 88% 30.25 in 10.0 mi SE 8.1 mph - 0.00 in   Overcast
2:53 AM 66.0 °F 62.1 °F 87% 30.24 in 10.0 mi SE 6.9 mph - 0.00 in   Overcast
3:53 AM 66.0 °F 62.1 °F 87% 30.25 in 10.0 mi SE 6.9 mph - N/A   Overcast
4:53 AM 66.0 °F 61.0 °F 84% 30.23 in 10.0 mi ESE 9.2 mph - 0.00 in   Overcast
5:53 AM 64.9 °F 61.0 °F 87% 30.24 in 10.0 mi SE 8.1 mph - N/A   Overcast
6:38 AM 64.4 °F 62.6 °F 94% 30.25 in 5.0 mi ESE 5.8 mph - 0.02 in Rain Light Rain
6:53 AM 64.9 °F 62.1 °F 90% 30.25 in 10.0 mi ESE 9.2 mph - 0.02 in Rain Light Rain
7:53 AM 66.0 °F 62.1 °F 87% 30.26 in 10.0 mi SE 5.8 mph - 0.00 in   Overcast
8:30 AM 66.2 °F 62.6 °F 88% 30.27 in 10.0 mi SSE 9.2 mph - N/A   Overcast
8:42 AM 66.2 °F 62.6 °F 88% 30.28 in 10.0 mi SE 6.9 mph - N/A   Overcast
8:53 AM 66.9 °F 62.1 °F 84% 30.27 in 10.0 mi SSE 9.2 mph - N/A   Overcast
9:53 AM 68.0 °F 62.1 °F 81% 30.29 in 10.0 mi SE 6.9 mph - N/A   Overcast
10:53 AM 66.9 °F 63.0 °F 87% 30.27 in 6.0 mi SE 12.7 mph - 0.02 in Rain Light Rain
11:06 AM 66.2 °F 62.6 °F 88% 30.27 in 6.0 mi SE 11.5 mph - 0.01 in Rain Light Rain
11:51 AM 66.2 °F 62.6 °F 88% 30.26 in 5.0 mi SSE 9.2 mph - 0.07 in Rain Light Rain
11:53 AM 66.9 °F 63.0 °F 87% 30.26 in 6.0 mi SSE 10.4 mph - 0.07 in Rain Light Rain
12:13 PM 66.2 °F 62.6 °F 88% 30.26 in 10.0 mi SSE 15.0 mph - 0.00 in   Overcast
12:28 PM 68.0 °F 64.4 °F 88% 30.26 in 10.0 mi South 11.5 mph 20.7 mph 0.00 in   Mostly Cloudy
12:42 PM 69.8 °F 64.4 °F 83% 30.26 in 10.0 mi South 16.1 mph 21.9 mph 0.00 in   Mostly Cloudy
12:53 PM 69.1 °F 63.0 °F 81% 30.25 in 10.0 mi SSE 15.0 mph - 0.00 in   Mostly Cloudy
1:02 PM 69.8 °F 62.6 °F 78% 30.25 in 10.0 mi South 13.8 mph - N/A   Scattered Clouds
1:53 PM 72.0 °F 63.0 °F 73% 30.23 in 10.0 mi South 17.3 mph 21.9 mph N/A   Partly Cloudy
2:06 PM 71.6 °F 62.6 °F 73% 30.23 in 10.0 mi South 15.0 mph 25.3 mph N/A   Mostly Cloudy
2:53 PM 73.0 °F 63.0 °F 71% 30.22 in 8.0 mi South 12.7 mph 20.7 mph N/A   Mostly Cloudy
3:25 PM 75.2 °F 62.6 °F 65% 30.21 in 8.0 mi South 10.4 mph - N/A   Scattered Clouds
3:53 PM 75.0 °F 61.0 °F 62% 30.20 in 8.0 mi South 13.8 mph - N/A   Partly Cloudy
4:53 PM 73.0 °F 62.1 °F 68% 30.22 in 9.0 mi South 8.1 mph - N/A   Overcast
5:40 PM 71.6 °F 62.6 °F 73% 30.21 in 10.0 mi South 9.2 mph - N/A   Overcast
5:53 PM 72.0 °F 63.0 °F 73% 30.20 in 10.0 mi SSE 6.9 mph - N/A   Overcast
6:53 PM 71.1 °F 64.0 °F 78% 30.22 in 10.0 mi SSE 4.6 mph - N/A   Overcast
7:53 PM 70.0 °F 64.0 °F 81% 30.23 in 10.0 mi SSE 4.6 mph - N/A   Overcast
8:40 PM 69.8 °F 64.4 °F 83% 30.24 in 6.0 mi SSE 5.8 mph - 0.00 in Rain Light Rain
8:53 PM 68.0 °F 64.9 °F 90% 30.24 in 6.0 mi SSE 6.9 mph - 0.00 in Rain Light Rain
9:06 PM 68.0 °F 64.4 °F 88% 30.24 in 6.0 mi SE 5.8 mph - 0.00 in   Overcast
9:43 PM 68.0 °F 64.4 °F 88% 30.24 in 7.0 mi SE 5.8 mph - 0.00 in   Overcast
9:53 PM 68.0 °F 64.0 °F 87% 30.25 in 7.0 mi SSE 6.9 mph - 0.00 in   Overcast
10:23 PM 68.0 °F 64.4 °F 88% 30.25 in 6.0 mi SSE 4.6 mph - N/A   Overcast
10:53 PM 68.0 °F 64.0 °F 87% 30.25 in 8.0 mi SSE 6.9 mph - N/A   Overcast
11:53 PM 68.0 °F 64.0 °F 87% 30.24 in 8.0 mi SSE 8.1 mph - N/A   Overcast